Tracking 19706 objects as of 16-Jun-2019
HD Live streaming from Space Station
objects crossing your sky now

DELLINGR (RBLE)

Track DELLINGR (RBLE) now!
10-day predictions


NORAD ID: 43021
Int'l Code: 1998-067NJ
Perigee: 384.1 km
Apogee: 387.7 km
Inclination: 51.6 °
Period: 92.1 minutes
Semi major axis: 6756 km
RCS: Unknown
Launch date: November 20, 1998
Source: United States (US)
Launch site: TYURATAM MISSILE AND SPACE COMPLEX (TTMTR)
aabbcc
Your satellite tracking list
Your tracking list is empty




NASA's NSSDC Master Catalog

Two Line Element Set (TLE):
1 43021U 98067NJ  19167.47343709  .00006031  00000-0  70693-4 0  9990
2 43021  51.6386 343.2748 0002688 101.0157 259.1140 15.63080084 89342
Source of the keplerian elements: AFSPC